ELL15Y EETN-EFKU

Flight info

Callsign ELL15Y
Flight time 0h 46m
Altitude 40000
Route MOHNI DCT ULTSI/N0463F390 DCT ATLUL
Aircraft B736/M-SDE2E3FGHIRWXY/LB1

Departure

Time 2026-04-29 11:12
Airport Lennart Meri Tallinn Airport (EETN)

Arrival

Time 2026-04-29 11:58
Airport Kuopio Airport (EFKU)
Time Latitude Longitude Altitude Speed Heading
2026-04-29 11:08 59.41507 24.81033 161 ft 19 kts 89°
2026-04-29 11:09 59.41507 24.81212 161 ft 21 kts 90°
2026-04-29 11:09 59.41505 24.81543 161 ft 29 kts 90°
2026-04-29 11:09 59.41503 24.82102 161 ft 28 kts 93°
2026-04-29 11:09 59.41460 24.82338 161 ft 18 kts 120°
2026-04-29 11:10 59.41392 24.82568 160 ft 21 kts 118°
2026-04-29 11:10 59.41334 24.82859 160 ft 25 kts 101°
2026-04-29 11:10 59.41326 24.83220 162 ft 27 kts 89°
2026-04-29 11:10 59.41330 24.83615 163 ft 31 kts 91°
2026-04-29 11:11 59.41312 24.83917 162 ft 13 kts 77°
2026-04-29 11:11 59.41336 24.83900 162 ft 5 kts 261°
2026-04-29 11:11 59.41325 24.83827 163 ft 6 kts 262°
2026-04-29 11:11 59.41325 24.83708 163 ft 21 kts 270°
2026-04-29 11:12 59.41328 24.82721 163 ft 120 kts 272°
2026-04-29 11:12 59.41327 24.80795 737 ft 151 kts 272°
2026-04-29 11:12 59.41358 24.78730 1995 ft 147 kts 284°
2026-04-29 11:12 59.41913 24.76995 2731 ft 166 kts 329°
2026-04-29 11:13 59.43137 24.76593 3120 ft 200 kts
2026-04-29 11:13 59.44541 24.77249 3751 ft 215 kts 12°
2026-04-29 11:13 59.46073 24.77967 4137 ft 239 kts 10°
2026-04-29 11:13 59.47711 24.78630 4955 ft 248 kts
2026-04-29 11:14 59.49401 24.79209 6112 ft 248 kts
2026-04-29 11:14 59.51128 24.79717 7150 ft 251 kts
2026-04-29 11:14 59.52870 24.80180 8230 ft 254 kts
2026-04-29 11:14 59.54640 24.80631 9279 ft 259 kts
2026-04-29 11:15 59.56435 24.81082 10352 ft 261 kts
2026-04-29 11:15 59.58198 24.82209 10978 ft 282 kts 29°
2026-04-29 11:15 59.59735 24.84966 11226 ft 315 kts 46°
2026-04-29 11:15 59.61177 24.88382 11818 ft 330 kts 47°
2026-04-29 11:16 59.62625 24.91940 12710 ft 334 kts 47°
2026-04-29 11:16 59.64081 24.95540 13743 ft 336 kts 47°
2026-04-29 11:16 59.65550 24.99161 14690 ft 338 kts 47°
2026-04-29 11:16 59.67031 25.02794 15610 ft 340 kts 47°
2026-04-29 11:17 59.68522 25.06441 16559 ft 342 kts 46°
2026-04-29 11:17 59.70011 25.10076 17490 ft 344 kts 46°
2026-04-29 11:17 59.71525 25.13769 18423 ft 347 kts 46°
2026-04-29 11:17 59.73052 25.17496 19228 ft 350 kts 46°
2026-04-29 11:18 59.74592 25.21258 19988 ft 353 kts 46°
2026-04-29 11:18 59.76146 25.25062 20748 ft 356 kts 46°
2026-04-29 11:18 59.77741 25.28851 21507 ft 358 kts 41°
2026-04-29 11:18 59.79630 25.32015 22252 ft 356 kts 31°
2026-04-29 11:19 59.81755 25.34543 23015 ft 356 kts 24°
2026-04-29 11:19 59.84041 25.36498 23758 ft 359 kts 20°
2026-04-29 11:19 59.86371 25.38361 24392 ft 361 kts 20°
2026-04-29 11:19 59.88706 25.40211 25090 ft 361 kts 20°
2026-04-29 11:20 59.91047 25.42071 25796 ft 361 kts 20°
2026-04-29 11:20 59.93382 25.43934 26471 ft 362 kts 20°
2026-04-29 11:20 59.95724 25.45814 27108 ft 363 kts 20°
2026-04-29 11:20 59.98072 25.47708 27714 ft 365 kts 20°
2026-04-29 11:21 60.00406 25.49597 28300 ft 366 kts 20°
2026-04-29 11:21 60.02771 25.51518 28881 ft 368 kts 20°
2026-04-29 11:21 60.05149 25.53453 29459 ft 369 kts 20°
2026-04-29 11:21 60.07541 25.55404 29990 ft 371 kts 20°
2026-04-29 11:22 60.09938 25.57363 30467 ft 373 kts 20°
2026-04-29 11:22 60.12349 25.59336 30819 ft 376 kts 20°
2026-04-29 11:22 60.14776 25.61325 31153 ft 379 kts 20°
2026-04-29 11:22 60.17199 25.63315 31521 ft 380 kts 20°
2026-04-29 11:23 60.19653 25.65334 31919 ft 382 kts 20°
2026-04-29 11:23 60.22114 25.67362 32285 ft 384 kts 20°
2026-04-29 11:23 60.24592 25.69407 32646 ft 385 kts 21°
2026-04-29 11:23 60.27078 25.71462 33020 ft 387 kts 21°
2026-04-29 11:24 60.29577 25.73532 33381 ft 388 kts 21°
2026-04-29 11:24 60.32084 25.75611 33757 ft 390 kts 21°
2026-04-29 11:24 60.34609 25.77708 34051 ft 393 kts 21°
2026-04-29 11:24 60.37144 25.79817 34368 ft 395 kts 21°
2026-04-29 11:25 60.39685 25.81936 34662 ft 396 kts 21°
2026-04-29 11:25 60.42205 25.84040 34908 ft 398 kts 21°
2026-04-29 11:25 60.44775 25.86189 35150 ft 400 kts 21°
2026-04-29 11:25 60.47353 25.88349 35416 ft 401 kts 21°
2026-04-29 11:26 60.52548 25.92713 35897 ft 405 kts 21°
2026-04-29 11:26 60.55163 25.94916 36153 ft 407 kts 21°
2026-04-29 11:26 60.57783 25.97126 36392 ft 409 kts 21°
2026-04-29 11:27 60.60419 25.99354 36630 ft 411 kts 21°
2026-04-29 11:27 60.63065 26.01594 36844 ft 413 kts 21°
2026-04-29 11:27 60.65696 26.03826 37083 ft 414 kts 21°
2026-04-29 11:27 60.68367 26.06095 37317 ft 415 kts 21°
2026-04-29 11:28 60.71036 26.08365 37533 ft 416 kts 21°
2026-04-29 11:28 60.73694 26.10633 37942 ft 413 kts 21°
2026-04-29 11:28 60.76358 26.12910 38119 ft 416 kts 21°
2026-04-29 11:28 60.79040 26.15206 38256 ft 419 kts 21°
2026-04-29 11:29 60.81737 26.17519 38495 ft 420 kts 21°
2026-04-29 11:29 60.84436 26.19837 38753 ft 421 kts 21°
2026-04-29 11:29 60.87141 26.22165 38945 ft 423 kts 21°
2026-04-29 11:29 60.89826 26.24480 39069 ft 425 kts 21°
2026-04-29 11:30 60.92556 26.26838 39261 ft 425 kts 21°
2026-04-29 11:30 60.95282 26.29197 39488 ft 424 kts 21°
2026-04-29 11:30 60.98007 26.31559 39671 ft 425 kts 21°
2026-04-29 11:30 61.00735 26.33929 39827 ft 426 kts 21°
2026-04-29 11:31 61.03475 26.36313 40009 ft 427 kts 21°
2026-04-29 11:31 61.06218 26.38705 40200 ft 427 kts 21°
2026-04-29 11:31 61.11722 26.43517 40265 ft 431 kts 22°
2026-04-29 11:32 61.17218 26.48341 40273 ft 428 kts 21°
2026-04-29 11:32 61.22681 26.53155 40276 ft 425 kts 21°
2026-04-29 11:33 61.25410 26.55567 40048 ft 429 kts 21°
2026-04-29 11:33 61.28173 26.58010 39488 ft 431 kts 22°
2026-04-29 11:33 61.30890 26.60420 38834 ft 430 kts 21°
2026-04-29 11:33 61.33631 26.62857 38128 ft 426 kts 21°
2026-04-29 11:34 61.36305 26.65241 37915 ft 412 kts 21°
2026-04-29 11:34 61.38904 26.67562 37632 ft 401 kts 21°
2026-04-29 11:34 61.41460 26.69846 37379 ft 401 kts 21°
2026-04-29 11:34 61.44056 26.72167 37155 ft 409 kts 21°
2026-04-29 11:35 61.46692 26.74527 36916 ft 415 kts 21°
2026-04-29 11:35 61.49351 26.76914 36661 ft 414 kts 21°
2026-04-29 11:35 61.51982 26.79283 36094 ft 411 kts 21°
2026-04-29 11:35 61.54600 26.81645 35439 ft 406 kts 21°
2026-04-29 11:36 61.57185 26.83982 34574 ft 405 kts 21°
2026-04-29 11:36 61.59744 26.86300 33959 ft 395 kts 21°
2026-04-29 11:36 61.62266 26.88589 32821 ft 395 kts 21°
2026-04-29 11:36 61.64769 26.90862 32146 ft 386 kts 20°
2026-04-29 11:37 61.67198 26.93076 31491 ft 378 kts 20°
2026-04-29 11:37 61.69555 26.95227 30933 ft 369 kts 20°
2026-04-29 11:37 61.71891 26.97361 30378 ft 361 kts 20°
2026-04-29 11:37 61.74170 26.99446 29747 ft 353 kts 20°
2026-04-29 11:38 61.76397 27.01487 29186 ft 344 kts 20°
2026-04-29 11:38 61.78568 27.03478 28644 ft 336 kts 20°
2026-04-29 11:38 61.80692 27.05429 28117 ft 329 kts 20°
2026-04-29 11:38 61.82771 27.07342 27595 ft 323 kts 20°
2026-04-29 11:39 61.84826 27.09233 27087 ft 320 kts 20°
2026-04-29 11:39 61.86835 27.11084 26580 ft 318 kts 20°
2026-04-29 11:39 61.88876 27.12966 26077 ft 324 kts 20°
2026-04-29 11:39 61.90998 27.14921 25541 ft 338 kts 20°
2026-04-29 11:40 61.93160 27.16920 24988 ft 338 kts 20°
2026-04-29 11:40 61.95296 27.18905 24453 ft 333 kts 20°
2026-04-29 11:40 61.97401 27.20866 23919 ft 328 kts 20°
2026-04-29 11:40 61.99480 27.22805 23333 ft 324 kts 20°
2026-04-29 11:41 62.01528 27.24718 22804 ft 319 kts 20°
2026-04-29 11:41 62.03547 27.26605 22296 ft 313 kts 20°
2026-04-29 11:41 62.05528 27.28458 21803 ft 309 kts 20°
2026-04-29 11:41 62.07495 27.30300 21319 ft 309 kts 20°
2026-04-29 11:42 62.09464 27.32145 20822 ft 309 kts 20°
2026-04-29 11:42 62.11458 27.34014 20331 ft 318 kts 20°
2026-04-29 11:42 62.13501 27.35931 19816 ft 323 kts 21°
2026-04-29 11:42 62.15553 27.37865 19293 ft 320 kts 21°
2026-04-29 11:43 62.17580 27.39779 18786 ft 316 kts 21°
2026-04-29 11:43 62.19579 27.41671 18250 ft 312 kts 21°
2026-04-29 11:43 62.21527 27.43515 17744 ft 307 kts 21°
2026-04-29 11:43 62.23470 27.45359 17254 ft 303 kts 21°
2026-04-29 11:44 62.25384 27.47175 16792 ft 299 kts 21°
2026-04-29 11:44 62.27285 27.48981 16288 ft 297 kts 21°
2026-04-29 11:44 62.29178 27.50780 15807 ft 299 kts 21°
2026-04-29 11:44 62.31091 27.52600 15317 ft 303 kts 21°
2026-04-29 11:45 62.33043 27.54461 14807 ft 310 kts 21°
2026-04-29 11:45 62.35028 27.56355 14293 ft 314 kts 21°
2026-04-29 11:45 62.37018 27.58260 13736 ft 311 kts 21°
2026-04-29 11:45 62.38983 27.60146 13221 ft 307 kts 22°
2026-04-29 11:46 62.40922 27.62009 12716 ft 303 kts 22°
2026-04-29 11:46 62.42871 27.63880 12228 ft 314 kts 22°
2026-04-29 11:46 62.44878 27.65810 11677 ft 313 kts 22°
2026-04-29 11:46 62.46826 27.67690 11184 ft 308 kts 22°
2026-04-29 11:47 62.48773 27.69571 10772 ft 302 kts 22°
2026-04-29 11:47 62.50644 27.71382 10645 ft 287 kts 22°
2026-04-29 11:47 62.52429 27.73111 10503 ft 274 kts 22°
2026-04-29 11:47 62.54135 27.74765 10402 ft 263 kts 22°
2026-04-29 11:48 62.55777 27.76359 10273 ft 253 kts 22°
2026-04-29 11:48 62.57387 27.77794 9963 ft 249 kts 16°
2026-04-29 11:48 62.59017 27.78873 9615 ft 247 kts 14°
2026-04-29 11:48 62.60674 27.79897 9246 ft 246 kts 14°
2026-04-29 11:49 62.62318 27.80913 8864 ft 246 kts 14°
2026-04-29 11:49 62.63965 27.81942 8504 ft 245 kts 14°
2026-04-29 11:49 62.65602 27.82976 8127 ft 245 kts 14°
2026-04-29 11:49 62.67232 27.84014 7762 ft 244 kts 14°
2026-04-29 11:50 62.68861 27.85057 7403 ft 244 kts 15°
2026-04-29 11:50 62.70473 27.86094 7034 ft 244 kts 14°
2026-04-29 11:50 62.72125 27.87160 6401 ft 253 kts 14°
2026-04-29 11:50 62.73840 27.88269 5733 ft 261 kts 14°
2026-04-29 11:51 62.75602 27.89413 5075 ft 268 kts 14°
2026-04-29 11:51 62.77408 27.90585 4401 ft 273 kts 14°
2026-04-29 11:51 62.79247 27.91781 3728 ft 278 kts 14°
2026-04-29 11:51 62.81111 27.92999 3092 ft 279 kts 14°
2026-04-29 11:52 62.82907 27.94175 2836 ft 256 kts 14°
2026-04-29 11:52 62.84550 27.94857 2717 ft 228 kts 353°
2026-04-29 11:52 62.85933 27.93644 2709 ft 203 kts 329°
2026-04-29 11:52 62.87086 27.92399 2667 ft 165 kts 336°
2026-04-29 11:53 62.88033 27.91536 2701 ft 128 kts 336°
2026-04-29 11:53 62.88776 27.90855 2672 ft 109 kts 335°
2026-04-29 11:53 62.89483 27.90200 2587 ft 111 kts 336°
2026-04-29 11:53 62.90207 27.89524 2423 ft 114 kts 336°
2026-04-29 11:54 62.90925 27.88860 2263 ft 111 kts 336°
2026-04-29 11:54 62.91640 27.88200 2092 ft 112 kts 335°
2026-04-29 11:54 62.92339 27.87537 1955 ft 110 kts 334°
2026-04-29 11:54 62.92918 27.86998 1833 ft 111 kts 336°
2026-04-29 11:55 62.93211 27.86731 1758 ft 111 kts 336°
2026-04-29 11:55 62.93912 27.86086 1594 ft 109 kts 336°
2026-04-29 11:55 62.94600 27.85449 1448 ft 107 kts 335°
2026-04-29 11:56 62.95287 27.84813 1292 ft 108 kts 336°
2026-04-29 11:56 62.95996 27.84169 1138 ft 110 kts 336°
2026-04-29 11:56 62.96698 27.83521 1009 ft 110 kts 334°
2026-04-29 11:56 62.97408 27.82814 838 ft 111 kts 334°
2026-04-29 11:57 62.98146 27.82159 677 ft 117 kts 335°
2026-04-29 11:57 62.98889 27.81468 501 ft 114 kts 335°
2026-04-29 11:57 62.99609 27.80803 353 ft 110 kts 335°
2026-04-29 11:57 63.00225 27.80226 324 ft 77 kts 337°
2026-04-29 11:58 63.00621 27.79858 323 ft 54 kts 336°
2026-04-29 11:58 63.00909 27.79595 321 ft 40 kts 336°
2026-04-29 11:58 63.01099 27.79400 324 ft 16 kts 326°
2026-04-29 11:58 63.01108 27.79226 324 ft 7 kts 241°
2026-04-29 11:59 63.01075 27.79090 323 ft 13 kts 243°
2026-04-29 11:59 63.01035 27.79036 323 ft 7 kts 166°
2026-04-29 11:59 63.00973 27.79082 321 ft 12 kts 160°
2026-04-29 11:59 63.00916 27.79142 324 ft 10 kts 155°
2026-04-29 12:00 63.00856 27.79150 324 ft 5 kts 249°
2026-04-29 12:00 63.00867 27.79052 323 ft 8 kts 295°
2026-04-29 12:00 63.00870 27.79039 322 ft 0 kts 295°